Retour au catalogue

COSMOS 2251 DEB

ActifLEO
NORAD 36005·DEBRIS·🇷🇺 Russia

Lancé Jun 16, 1993 depuis Plesetsk Cosmodrome

Loading…

Prochains Passages (prochaines 24 heures)

TLE

FraisSource: Space-Track

Époque: Sep 13, 2026, 20:40 UTC

1 36005U 93036AWX 26256.86161914  .00000270  00000-0  79134-4 0  9999
2 36005  74.0259 299.1067 0060872   6.5996 353.5950 14.47643375915655

Suivez COSMOS 2251 DEB en temps réel avec AllMySat

Download on the App Store